This demonstration page uses our WeatherBlox Daily Observations layout. Learn more.

Left ArrowRight Arrow

Hourly Observations for June 10, 2016

Temp ( °F °C ) Dew Point ( °F °C ) Humidity (%) Winds ( mph kmh ) Pressure ( in mb ) Visibility ( mi km ) Precip ( " mm )
12:52 am 00:52 Clear 73 22.8 65 18.3 76 76 SSE 8 13 29.96 1014 10 16 0.00 0.00
1:52 am 01:52 Clear 72 22.2 64 17.8 76 76 SSE 9 15 29.95 1014 10 16 0.00 0.00
2:52 am 02:52 Clear 71 21.7 63 17.2 76 76 SSE 10 17 29.96 1014 10 16 0.00 0.00
3:52 am 03:52 Clear 70 21.1 63 17.2 79 79 SSE 9 15 29.96 1015 10 16 0.00 0.00
4:52 am 04:52 Clear 69 20.6 62 16.7 78 78 SSE 7 11 29.98 1015 10 16 0.00 0.00
5:52 am 05:52 Clear 67 19.4 62 16.7 84 84 S 6 9 30.00 1016 10 16 0.00 0.00
6:52 am 06:52 Sunny 70 21.1 62 16.7 76 76 SSE 8 13 30.01 1016 10 16 0.00 0.00
7:52 am 07:52 Sunny 73 22.8 63 17.2 71 71 S 9 15 30.02 1017 10 16 0.00 0.00
8:52 am 08:52 Sunny 78 25.6 64 17.8 62 62 S 10 17 30.04 1017 10 16 0.00 0.00
9:52 am 09:52 Sunny 81 27.2 65 18.3 58 58 SSW 8 13 30.03 1017 10 16 0.00 0.00
10:52 am 10:52 Sunny 84 28.9 62 16.7 48 48 SW 8 13 30.03 1017 10 16 0.00 0.00
11:52 am 11:52 Sunny 86 30 63 17.2 46 46 S 10 17 30.03 1017 10 16 0.00 0.00
12:52 pm 12:52 Sunny 87 30.6 60 15.6 40 40 SSW 9 15 30.01 1016 10 16 0.00 0.00
1:52 pm 13:52 Sunny 89 31.7 59 15 36 36 S 13 20 29.99 1016 10 16 0.00 0.00
2:52 pm 14:52 Sunny 90 32.2 60 15.6 37 37 SSE 13 20 29.98 1015 10 16 0.00 0.00
3:52 pm 15:52 Sunny 89 31.7 60 15.6 38 38 SSW 13 20 29.97 1015 10 16 0.00 0.00
4:52 pm 16:52 Sunny 89 31.7 58 14.4 35 35 SW 9 15 29.96 1015 10 16 0.00 0.00
5:52 pm 17:52 Sunny 87 30.6 62 16.7 43 43 S 9 15 29.96 1014 10 16 0.00 0.00
6:52 pm 18:52 Sunny 87 30.6 62 16.7 43 43 S 7 11 29.95 1014 10 16 0.00 0.00
7:52 pm 19:52 Sunny 83 28.3 63 17.2 51 51 SSE 9 15 29.96 1015 10 16 0.00 0.00
8:52 pm 20:52 Clear 81 27.2 63 17.2 54 54 SSE 8 13 29.95 1014 10 16 0.00 0.00
9:52 pm 21:52 Clear 79 26.1 64 17.8 60 60 SSE 8 13 29.97 1015 10 16 0.00 0.00
10:52 pm 22:52 Mostly Clear 77 25 64 17.8 64 64 S 8 13 29.98 1015 10 16 0.00 0.00
11:52 pm 23:52 Mostly Cloudy 75 23.9 65 18.3 71 71 S 6 9 30.00 1016 10 16 0.00 0.00

Powered by AerisWeather